Portland, ME

11:43 AM EDT on August 28, 2016 (GMT -0400)
Portland International

Weather History for KPWM - January, 2014

Change the Weather History Date:

Thursday, January 30, 2014

  Actual Average Record
Temperature  
Mean Temperature 17 °F 22 °F  
Max Temperature 25 °F 32 °F 52 °F (2013)
Min Temperature 8 °F 13 °F -14 °F (1948)
Degree Days  
Heating Degree Days 48 43  
Month to date heating degree days 1307 1280  
Since 1 July heating degree days 4009 3892  
Cooling Degree Days 0 0  
Month to date cooling degree days 0 0  
Year to date cooling degree days 0 0  
Moisture  
Dew Point 3 °F    
Average Humidity 52    
Maximum Humidity 63    
Minimum Humidity 40    
Precipitation  
Precipitation 0.00 in 0.11 in 2.04 in (1966)
Month to date precipitation 4.05 3.28  
Year to date precipitation 4.05 3.28  
Snow  
Snow 0.00 in 0.50 in 15.40 in (1909)
Month to date snowfall 17.6 18.6  
Since 1 July snowfall 44.3 33.7  
Snow Depth 2.00 in    
Sea Level Pressure  
Sea Level Pressure 30.29 in    
Wind  
Wind Speed 5 mph (SSW)    
Max Wind Speed 16 mph    
Max Gust Speed 21 mph    
Visibility 10 miles    
Events      
T = Trace of Precipitation, MM = Missing Value Source: NWS Daily Summary

Daily Weather History Graph

Daily Weather History Graph

Search for Another Location

Airport or City:

Trip Planner

Search our weather history database for the weather conditions in past years. The results will help you decide how hot, cold, wet, or windy it might be!

Date:

Astronomy

Jan. 30, 2014 Rise Set
Actual Time 6:59 AM EST 4:49 PM EST
Civil Twilight 6:29 AM EST 5:20 PM EST
Nautical Twilight 5:54 AM EST 5:54 PM EST
Astronomical Twilight 5:21 AM EST 6:28 PM EST
Moon 6:22 AM EST (1/30) 4:59 PM EST (1/30)
Length of Visible Light 10h 51m
Length of Day
9h 49m
Waning Crescent, 0% of the Moon is Illuminated
Jan 30
Waning Crescent
Jan 30
New
Feb 6
First Quarter
Feb 14
Full
Feb 22
Last Quarter

Hourly Weather History & Observations

Time (EST) Temp. Windchill Dew Point Humidity Pressure Visibility Wind Dir Wind Speed Gust Speed Precip Events Conditions
12:51 AM 14.0 °F 0.5 °F -2.9 °F 47% 30.17 in 10.0 mi West 11.5 mph - N/A   Clear
1:51 AM 12.9 °F 1.6 °F -2.9 °F 49% 30.20 in 10.0 mi West 8.1 mph - N/A   Clear
2:51 AM 12.0 °F 0.5 °F -2.9 °F 51% 30.22 in 10.0 mi WSW 8.1 mph - N/A   Clear
3:51 AM 12.0 °F - -2.0 °F 53% 30.25 in 10.0 mi Calm Calm - N/A   Clear
4:51 AM 10.0 °F 0.4 °F -2.0 °F 58% 30.28 in 10.0 mi South 5.8 mph - N/A   Clear
5:51 AM 10.9 °F 4.7 °F -2.0 °F 56% 30.31 in 10.0 mi SSW 3.5 mph - N/A   Clear
6:51 AM 9.0 °F 0.6 °F -2.0 °F 61% 30.34 in 10.0 mi SW 4.6 mph - N/A   Clear
7:51 AM 10.0 °F - -0.9 °F 61% 30.37 in 10.0 mi Calm Calm - N/A   Clear
8:51 AM 15.1 °F 3.3 °F 1.0 °F 54% 30.41 in 10.0 mi West 9.2 mph - N/A   Clear
9:51 AM 18.0 °F 11.1 °F 3.0 °F 52% 30.42 in 10.0 mi West 4.6 mph - N/A   Clear
10:51 AM 21.9 °F 15.7 °F 3.0 °F 44% 30.40 in 10.0 mi Variable 4.6 mph - N/A   Clear
11:51 AM 24.1 °F - 3.0 °F 40% 30.37 in 10.0 mi Calm Calm - N/A   Clear
12:51 PM 23.0 °F 13.1 °F 3.9 °F 44% 30.35 in 10.0 mi South 9.2 mph - N/A   Clear
1:51 PM 23.0 °F 14.7 °F 5.0 °F 46% 30.34 in 10.0 mi South 6.9 mph - N/A   Clear
2:51 PM 24.1 °F 16.0 °F 8.1 °F 51% 30.32 in 10.0 mi South 6.9 mph - N/A   Clear
3:51 PM 24.1 °F 16.0 °F 9.0 °F 53% 30.32 in 10.0 mi SSE 6.9 mph - N/A   Clear
4:51 PM 24.1 °F 18.2 °F 8.1 °F 51% 30.31 in 10.0 mi South 4.6 mph - N/A   Clear
5:51 PM 23.0 °F 15.8 °F 6.1 °F 48% 30.29 in 10.0 mi South 5.8 mph - N/A   Clear
6:51 PM 21.9 °F 15.7 °F 5.0 °F 48% 30.28 in 10.0 mi SSW 4.6 mph - N/A   Clear
7:51 PM 21.0 °F 13.4 °F 5.0 °F 50% 30.27 in 10.0 mi SW 5.8 mph - N/A   Clear
8:51 PM 21.9 °F 14.5 °F 3.9 °F 46% 30.24 in 10.0 mi SW 5.8 mph - N/A   Clear
9:51 PM 21.9 °F 13.4 °F 5.0 °F 48% 30.22 in 10.0 mi SSW 6.9 mph - N/A   Clear
10:51 PM 21.0 °F 14.6 °F 5.0 °F 50% 30.19 in 10.0 mi SW 4.6 mph - N/A   Clear
11:51 PM 21.0 °F 13.4 °F 6.1 °F 53% 30.18 in 10.0 mi SSW 5.8 mph - N/A   Clear